Meteo Giornale » Osservazioni meteo Italia » Rimini

ore: 11:50 - Osservazioni Meteo Rimini
Lat. 44° 2' N Lon. 12° 37' E Alt. 12 metri s.l.m.

sereno Europe/Rome

7 °C

Sereno

Temp. 24 Ore

-1 °C

7 °C

Ovest

11.1 Km/h

Dew point 2 °C

Umidità 70 %

Visibilità  10 Km

Il sole sorge alle ore 07:37

Il sole tramonta alle ore 16:34

Data e Ora Cielo e Fenomeni T °C DP °C Um. % Pres. hPa Vis. km Vento km/h
Oggi h: 11:50 sereno Sereno 7 2 70 1029 10 O 11.1
Oggi h: 11:20 sereno Sereno 7 2 70 1029 10 O/NO 9.3
Oggi h: 10:50 sereno Sereno 5 2 80 1029 10 O 7.4
Oggi h: 10:20 sereno Sereno 5 2 80 1029 10 N 5.5
Oggi h: 09:50 sereno Sereno 3 1 86 1029 10 O 9.3
Oggi h: 09:20 sereno Sereno 2 0 86 1029 10 O/NO 13
Oggi h: 08:50 sereno Sereno 0 -1 92 1029 10 O 11.1
Oggi h: 08:20 poco_nuvoloso Poco Nuvoloso -0 -1 92 1029 10 O/NO 7.4
Oggi h: 07:50 sereno Sereno -0 -2 86 1028 10 O 7.4
Oggi h: 07:20 sereno Sereno -1 -2 92 1028 10 O/NO 7.4
Oggi h: 06:50 sereno Sereno -0 -1 92 1028 10 O/NO 9.3
Oggi h: 06:20 sereno Sereno -0 -2 86 1028 10 O 13
Oggi h: 05:50 sereno Sereno 1 -1 86 1028 10 O 14.8
Oggi h: 05:20 sereno Sereno 2 -0 86 1027 10 NO 11.1
Oggi h: 04:50 sereno Sereno 2 -0 86 1027 10 N 5.5
Oggi h: 04:20 sereno Sereno 2 -0 86 1027 10 O 13
Oggi h: 03:50 sereno Sereno -0 -1 92 1027 8 O 13
Oggi h: 03:20 sereno Sereno 0 -1 92 1027 9 O 9.3
Oggi h: 02:50 sereno Sereno 2 -1 80 1027 10 O 11.1
Oggi h: 02:20 sereno Sereno 2 -0 86 1027 10 O/SO 11.1
Oggi h: 01:50 sereno Sereno 3 0 80 1027 10 O 18.5
Oggi h: 01:20 sereno Sereno 3 0 80 1027 10 O 25.9
Oggi h: 00:50 sereno Sereno 3 0 80 1027 9 O 22.2
Oggi h: 00:20 sereno Sereno 3 0 80 1027 8 O 20.3
Ieri h: 23:50 sereno Sereno 3 1 86 1027 9 O 22.2
Ieri h: 23:20 sereno Sereno 3 0 80 1027 10 O 24
Ieri h: 22:50 poco_nuvoloso Poco Nuvoloso 3 0 80 1026 10 O 24
Ieri h: 22:20 poco_nuvoloso Poco Nuvoloso 3 0 80 1026 10 O 20.3
Ieri h: 21:50 poco_nuvoloso Poco Nuvoloso 3 0 80 1026 10 O 22.2
Ieri h: 21:20 poco_nuvoloso Poco Nuvoloso 3 0 80 1025 10 O 22.2
Ieri h: 20:50 poco_nuvoloso Poco Nuvoloso 3 0 80 1025 8 O 20.3
Ieri h: 20:20 poco_nuvoloso Poco Nuvoloso 3 0 80 1025 8 O 24
Ieri h: 19:50 poco_nuvoloso Poco Nuvoloso 3 0 80 1025 6 O 24
Ieri h: 19:20 poco_nuvoloso Poco Nuvoloso 3 0 80 1024 6 O 24
Ieri h: 18:50 foschia Foschia 3 0 80 1024 5 O/NO 22.2
Ieri h: 18:20 foschia Foschia 2 0 86 1023 5 O 20.3
Ieri h: 17:50 foschia Foschia 2 0 86 1023 5 O 24
Ieri h: 17:20 foschia Foschia 2 1 93 1022 5 O 24
Ieri h: 16:50 foschia Foschia 2 1 93 1022 4 O 22.2
Ieri h: 16:20 foschia Foschia 2 1 93 1021 5 O/NO 24
Ieri h: 15:50 foschia Foschia 2 1 93 1021 5 O 27.8
Ieri h: 15:20 foschia Foschia 2 1 93 1021 4 O 25.9
Ieri h: 14:50 foschia Foschia 2 1 93 1020 4 O 25.9
Ieri h: 14:20 foschia Foschia 2 1 93 1020 4 O 25.9
Ieri h: 13:50 coperto_pioggia Pioggia Debole Foschia 2 1 93 1019 3 O 25.9
Ieri h: 13:20 coperto_pioggia Pioggia Debole Foschia 2 1 93 1019 3 O 25.9
Ieri h: 12:50 foschia Foschia 1 1 100 1019 3 O 25.9
Ieri h: 12:20 coperto Coperto 1 1 100 1019 4 O 25.9
Ieri h: 11:50 coperto Coperto 1 1 100 1019 4 O 25.9